SCP
0 0 0 0 0 0 0 0 0 0 0 0 0 0 0 0 0 0 0 0 0 0 0 0 0 0 0 0 0 0 0 0 0 0 0 0 0 0 0 0 0 0 0 0 0 0 0 0 0
0 0 0 0 0 0 0 0 0 0 0 0 0 0 0 0 0 0 0 0 0 0 0 0 0 0 0 0 0 0 0 0 0 0 0 0 0 0 0 0 0 0 0 0 0 0 0 0 0
0 0 0 0 0 0 0 0 0 0 0 0 0 0 0 0 0 0 0 0 0 0 0 0 0 1 1 1 0 0 0 0 0 0 0 0 0 0 0 0 0 0 0 0 0 0 0 0 0
0 0 0 0 0 0 0 0 0 0 0 0 0 0 0 0 0 0 0 0 0 0 0 0 1 1 1 1 0 0 0 0 0 0 0 0 0 0 0 0 0 0 0 0 0 0 0 0 0
0 0 0 0 0 0 0 0 0 0 0 0 0 0 0 0 0 0 0 0 0 0 0 0 1 1 1 1 1 0 0 0 0 0 0 0 0 0 0 0 0 0 0 0 0 0 0 0 0
0 0 0 0 0 0 0 0 0 0 0 0 0 0 0 0 0 0 0 0 0 0 0 0 1 1 1 1 1 1 0 0 0 0 0 0 0 0 0 0 0 0 0 0 0 0 0 0 0
0 0 0 0 0 0 0 0 0 0 0 0 0 0 0 0 0 0 0 0 0 0 0 0 1 0 0 1 1 1 1 0 0 0 0 0 0 0 0 0 0 0 0 0 0 0 0 0 0
0 0 0 0 0 0 0 0 0 0 0 0 0 0 0 0 0 0 0 0 0 0 0 0 0 0 0 0 0 0 0 0 0 0 0 0 0 0 0 0 0 0 0 0 0 0 0 0 0
0 0 0 0 0 0 0 0 0 0 0 0 0 0 0 0 0 0 0 0 0 0 0 0 0 0 0 0 0 0 0 0 0 0 0 0 0 0 0 0 0 0 0 0 0 0 0 0 0
0 0 0 0 0 0 0 0 0 0 0 0 0 0 0 0 0 0 0 0 0 0 0 0 0 0 0 0 0 0 0 0 0 0 0 0 0 0 0 0 0 0 0 0 0 0 0 0 0
0 0 0 0 0 0 0 0 0 0 0 0 0 0 0 0 0 0 0 0 0 0 0 0 0 0 0 0 0 0 0 0 0 0 0 0 0 0 0 0 0 0 0 0 0 0 0 0 0
0 0 0 0 0 0 0 0 0 0 0 0 0 0 0 0 0 0 0 0 0 0 0 0 0 0 0 0 0 0 0 0 0 0 0 0 0 0 0 0 0 0 0 0 0 0 0 0 0
0 0 0 0 0 0 0 0 0 0 0 0 0 0 0 0 0 0 0 0 0 0 0 0 0 0 0 0 0 0 0 0 0 0 0 0 0 0 0 0 0 0 0 0 0 0 0 0 0
0 0 0 0 0 0 0 0 0 0 0 0 0 0 0 0 0 0 0 0 0 0 0 0 0 0 0 0 0 0 0 0 0 0 0 0 0 0 0 0 0 0 0 0 0 0 0 0 0
0 0 0 0 0 0 0 0 0 0 0 0 0 0 0 0 0 0 0 0 0 0 0 0 0 0 0 0 0 0 0 0 0 0 0 0 0 0 0 0 0 0 0 0 0 0 0 0 0
0 0 0 0 0 0 0 0 0 0 0 0 0 0 0 0 0 0 0 0 0 0 0 0 0 0 0 0 0 0 0 0 0 0 0 0 0 0 0 0 0 0 0 0 0 0 0 0 0
0 0 0 0 0 0 0 0 0 0 0 0 0 0 0 0 0 0 0 0 0 0 0 0 0 0 0 0 0 0 0 0 0 0 0 0 0 0 0 0 0 0 0 0 0 0 0 0 0
0 0 0 0 0 0 0 0 0 0 0 0 0 0 0 0 0 0 0 0 0 0 0 0 0 0 0 0 0 0 0 0 0 0 0 0 0 0 0 0 0 0 0 0 0 0 0 0 0
0 0 0 0 0 0 0 0 0 0 0 0 0 0 0 0 0 0 0 0 0 0 0 0 0 0 0 0 0 0 0 0 0 0 0 0 0 0 0 0 0 0 0 0 0 0 0 0 0
0 0 0 0 0 0 0 0 0 0 0 0 0 0 0 0 0 0 0 0 0 0 0 0 0 0 0 0 0 0 0 0 0 0 0 0 0 0 0 0 0 0 0 0 0 0 0 0 0
0 0 0 0 0 0 0 0 0 0 0 0 0 0 0 0 0 0 0 0 0 0 0 0 0 0 0 0 0 0 0 0 0 0 0 0 0 0 0 0 0 0 0 0 0 0 0 0 0
0 0 0 0 0 0 0 0 0 0 0 0 0 0 0 0 0 0 0 0 0 0 0 0 0 0 0 0 0 0 0 0 0 0 0 0 0 0 0 0 0 0 0 0 0 0 0 0 0
0 0 0 0 0 0 0 0 0 0 0 0 0 0 0 0 0 0 0 0 0 0 0 0 0 0 0 0 0 0 0 0 0 0 0 0 0 0 0 0 0 0 0 0 0 0 0 0 0
0 0 0 0 0 0 0 0 0 0 0 0 0 0 0 0 0 0 0 0 0 0 0 0 0 0 0 0 0 0 0 0 0 0 0 0 0 0 0 0 0 0 0 0 0 0 0 0 0
0 0 0 0 0 0 0 0 0 0 0 0 0 0 0 0 0 0 0 0 0 0 0 0 0 0 0 0 0 0 0 0 0 0 0 0 0 0 0 0 0 0 0 0 0 0 0 0 0
0 0 0 0 0 0 0 0 0 0 0 0 0 0 0 0 0 0 0 0 0 0 0 0 0 0 0 0 0 0 0 0 0 0 0 0 0 0 0 0 0 0 0 0 0 0 0 0 0
0 0 0 0 0 0 0 0 0 0 0 0 0 0 0 0 0 0 0 0 0 0 0 0 0 0 0 0 0 0 0 0 0 0 0 0 0 0 0 0 0 0 0 0 0 0 0 0 0
0 0 0 0 0 0 0 0 0 0 0 0 0 0 0 0 0 0 0 0 0 0 0 0 0 0 0 0 0 0 0 0 0 0 0 0 0 0 0 0 0 0 0 0 0 0 0 0 0
0 0 0 0 0 0 0 0 0 0 0 0 0 0 0 0 0 0 0 0 0 0 0 0 0 0 0 0 0 0 0 0 0 0 0 0 0 0 0 0 0 0 0 0 0 0 0 0 0
0 0 0 0 0 0 0 0 0 0 0 0 0 0 0 0 0 0 0 0 0 0 0 0 0 0 0 0 0 0 0 0 0 0 0 0 0 0 0 0 0 0 0 0 0 0 0 0 0
Wind_Speed
9 5 2 4 5 3 3 4 2 1 1 1 1 3 4 4 4 2 1 2 4 6 6 8 10 11 11 11 11 11 11 11 11 11 11 11 11 11 11 11 11 11 11 11 12 12 12 12 13
4 3 4 5 4 3 5 4 3 3 1 1 2 2 3 1 1 2 1 1 4 5 6 6 9 10 11 11 11 11 11 11 10 10 10 11 11 11 11 10 10 10 11 11 11 11 11 11 12
3 3 4 4 3 7 5 3 4 2 1 2 2 2 2 0 1 1 0 2 5 5 4 6 9 9 10 11 11 11 11 10 10 10 10 10 11 10 10 10 10 10 10 10 10 10 10 10 11
3 4 4 3 6 6 3 1 2 1 2 3 2 2 1 2 1 1 2 4 5 5 4 5 9 9 9 10 10 10 10 10 10 10 10 10 10 10 10 10 10 9 9 9 9 10 10 10 10
4 3 3 2 7 4 2 2 0 1 0 1 2 1 1 3 3 4 4 5 5 4 4 4 7 9 9 9 9 9 9 9 9 9 9 9 10 10 9 9 9 9 8 9 9 9 9 9 9
4 3 3 6 7 3 2 2 0 1 0 1 2 1 1 1 4 4 3 4 4 4 4 4 6 8 8 8 9 9 9 9 9 9 9 9 9 9 9 9 8 8 8 8 8 8 8 8 8
3 3 4 5 4 3 2 1 1 1 1 2 2 2 1 0 2 3 4 4 4 4 4 3 3 4 6 7 7 7 8 7 7 7 8 8 8 8 8 8 8 8 8 7 7 7 8 7 7
3 3 2 3 4 4 1 1 0 2 3 1 2 4 3 2 2 3 4 4 4 4 3 3 3 3 3 4 6 6 6 6 6 6 7 7 6 6 6 6 6 7 7 7 7 6 7 7 6
2 2 4 5 4 3 0 1 2 1 1 0 1 2 2 4 4 4 4 3 3 3 3 2 3 2 2 3 4 4 5 6 6 5 6 5 3 3 3 4 5 6 6 6 6 6 6 6 5
2 4 6 3 2 1 1 1 2 1 1 1 2 2 3 5 5 5 4 3 3 2 2 2 2 2 2 2 3 2 2 3 3 3 3 3 2 2 3 4 5 5 5 6 6 5 5 4 2
1 4 2 3 2 2 3 3 2 2 3 4 3 3 5 5 5 5 5 5 4 4 3 2 2 2 2 2 2 2 2 2 2 3 3 3 3 2 2 2 2 3 4 3 4 3 2 2 1
1 2 2 3 2 2 3 3 3 3 6 4 4 5 7 7 7 6 6 5 4 3 3 3 3 2 2 2 2 2 2 2 2 2 3 3 2 2 1 1 1 1 1 2 2 1 2 2 1
2 2 2 3 3 3 4 5 5 7 7 5 3 3 7 7 6 5 5 5 4 4 4 4 4 3 2 2 2 2 2 2 2 2 2 3 2 2 1 1 1 1 1 2 1 1 1 1 1
2 2 2 3 4 3 4 6 4 7 5 3 3 5 6 7 7 5 5 4 4 4 4 4 5 4 4 3 2 2 2 2 2 2 2 2 2 2 2 1 1 1 1 1 1 1 1 1 1
1 1 3 3 3 3 2 6 7 7 4 4 5 5 5 5 6 7 7 5 5 5 5 4 5 5 4 3 3 2 2 2 2 2 2 2 2 2 2 2 1 1 1 1 1 1 1 1 1
1 0 3 3 2 3 2 9 6 4 3 5 6 5 6 5 6 6 5 5 5 5 5 4 4 5 5 4 3 2 2 2 2 1 2 2 2 2 2 2 1 1 1 1 1 1 1 0 0
1 1 4 5 3 2 4 8 6 4 4 6 7 6 6 5 5 5 6 6 6 6 5 5 4 5 4 4 3 3 2 2 2 2 2 2 2 2 2 2 1 2 1 1 1 1 1 1 0
3 3 4 5 3 3 5 9 9 5 6 8 7 6 6 6 6 5 6 6 6 6 5 5 4 4 4 3 3 2 2 2 1 2 2 2 2 2 2 2 2 2 2 1 1 1 0 1 1
3 4 6 7 5 4 7 9 11 7 5 6 6 6 6 6 5 4 4 5 5 5 5 6 5 4 4 3 3 3 3 2 2 2 2 2 2 3 2 2 2 2 2 2 2 1 1 0 0
3 3 5 5 3 3 6 10 8 6 7 6 6 6 6 4 3 3 3 3 5 6 6 6 6 5 5 4 3 3 3 2 2 2 2 2 3 3 2 2 2 2 2 2 2 1 1 0 1
3 4 4 4 5 3 3 7 6 5 4 4 4 4 4 5 4 3 3 4 4 5 5 5 6 6 5 4 3 2 2 2 1 1 2 2 3 3 3 3 2 2 2 2 2 2 2 1 1
4 3 4 4 3 3 0 5 7 4 4 4 4 3 4 4 3 3 3 3 4 4 4 5 5 5 4 4 5 5 4 3 3 3 2 2 3 3 3 3 3 2 2 2 3 2 2 2 2
4 2 2 3 2 4 2 4 7 2 5 6 5 5 4 4 3 3 3 3 4 4 4 4 5 5 4 4 5 5 4 3 2 2 2 2 2 3 3 3 3 2 2 2 2 2 2 2 3
2 2 2 2 1 4 4 4 7 4 6 5 4 4 4 3 3 3 2 2 2 2 3 3 5 5 5 5 5 5 6 4 3 3 3 2 2 2 3 2 2 2 2 3 3 3 3 3 3
2 3 3 4 2 6 2 3 9 6 5 5 5 5 4 3 2 2 2 2 2 2 3 3 5 5 5 5 5 5 6 6 6 5 4 3 2 2 3 2 2 2 2 2 2 3 3 3 3
2 4 5 3 4 5 2 6 8 4 3 3 3 3 3 3 2 3 3 3 3 3 3 4 5 5 5 5 5 5 5 4 4 4 4 4 3 3 3 3 3 2 2 2 2 2 3 3 3
2 2 3 3 1 3 6 7 8 2 2 3 3 3 3 4 3 3 3 3 3 3 3 4 5 4 4 5 5 5 4 4 4 4 3 2 2 2 3 3 3 2 2 3 3 3 3 3 3
2 4 3 3 2 4 6 6 5 4 4 4 4 4 4 4 3 3 3 3 3 3 3 2 4 4 3 4 4 4 4 4 3 3 3 2 2 2 3 3 3 3 3 3 2 2 3 3 3
2 2 2 2 3 3 4 8 5 5 5 6 6 5 4 4 4 3 3 3 2 1 1 1 1 1 2 3 3 3 3 3 3 3 3 3 3 3 3 2 2 2 3 3 2 2 3 3 3
4 5 5 3 4 3 3 10 3 3 4 4 5 5 4 4 4 3 2 1 2 2 1 1 1 1 2 3 3 3 3 3 3 3 2 3 3 3 3 3 3 2 2 3 3 3 3 4 4
Wind_Direction
334 340 33 55 59 59 228 238 230 254 232 249 185 144 151 152 157 192 344 99 118 141 153 153 150 149 145 142 137 131 127 125 123 122 121 120 119 117 114 111 107 105 102 100 99 100 99 97 95
331 349 49 63 105 191 246 229 225 229 219 73 47 66 84 59 38 74 48 40 122 132 140 147 146 148 146 144 139 135 131 128 126 125 124 123 122 122 118 114 110 107 105 104 101 101 100 98 97
341 37 81 88 153 197 213 211 221 258 1 60 53 48 98 32 32 78 285 140 117 116 126 138 137 139 141 143 142 138 135 132 129 127 127 126 124 123 120 117 113 109 108 107 104 103 102 102 102
42 45 60 108 216 221 210 237 237 306 8 42 85 48 29 38 27 336 125 119 112 108 110 137 135 137 135 134 137 139 138 136 134 131 130 129 126 122 119 117 115 112 110 108 106 104 103 103 104
54 78 102 213 234 236 232 275 243 137 16 35 98 100 326 3 39 73 108 110 111 111 109 131 134 137 133 134 134 131 133 134 134 133 133 132 129 124 122 120 119 117 114 111 110 108 107 103 106
55 77 152 215 234 249 261 276 234 64 34 52 98 107 275 52 56 70 76 93 101 112 108 118 128 133 132 132 135 132 130 128 130 130 129 130 129 129 129 127 125 123 121 117 115 114 111 106 107
113 127 197 210 234 252 266 283 169 204 243 240 164 141 221 59 60 80 69 81 87 98 100 102 119 126 130 129 126 127 127 127 123 126 127 128 127 128 130 130 131 131 129 125 121 118 118 113 109
118 114 194 216 217 239 293 336 257 195 232 254 133 153 193 213 94 82 71 84 93 88 88 87 91 103 117 128 121 117 120 120 119 114 114 115 119 125 127 125 129 132 132 129 124 121 120 116 111
87 119 213 215 204 231 301 342 320 315 144 167 242 203 209 144 126 99 84 70 94 98 92 89 90 91 99 108 111 114 114 113 113 113 102 98 96 102 114 119 123 124 125 126 123 123 116 110 106
103 193 222 228 209 253 316 291 296 354 346 295 315 353 119 141 150 141 141 147 151 158 150 120 107 111 103 113 106 108 103 105 100 101 101 93 85 90 96 106 109 115 115 116 111 110 107 96 82
152 203 226 288 307 303 296 302 296 177 240 231 223 202 158 166 170 169 172 176 181 177 172 162 145 135 119 108 115 102 98 97 96 102 101 98 88 82 82 91 99 95 95 91 91 77 67 79 94
185 253 251 280 313 325 299 291 293 238 245 260 235 196 177 182 186 189 187 190 186 181 179 175 162 139 128 121 121 119 111 112 109 115 115 116 111 95 89 91 92 89 93 97 90 94 82 76 88
231 250 264 272 289 278 290 281 269 273 277 278 240 205 192 195 202 207 196 190 188 191 184 180 169 155 148 139 134 123 129 127 125 127 126 126 132 134 119 103 97 101 103 115 117 109 101 100 88
229 230 276 288 278 279 270 280 267 269 278 270 218 218 210 204 205 206 204 199 198 198 188 183 174 164 157 152 143 142 146 132 135 135 134 135 141 145 140 130 115 116 116 118 131 129 135 138 136
244 294 304 281 269 265 277 285 247 261 264 251 235 228 221 220 209 207 206 210 208 200 188 182 179 164 162 159 156 146 153 151 146 149 150 146 144 154 148 150 149 154 130 126 116 103 106 120 117
22 14 276 278 256 257 182 262 262 250 224 234 232 230 219 228 222 219 215 215 218 202 186 184 186 169 167 164 158 155 156 161 155 156 162 157 150 150 145 152 161 147 129 149 149 140 115 113 117
33 244 253 279 243 236 203 255 267 261 225 235 235 231 222 228 230 227 222 212 208 201 188 184 181 176 171 165 159 155 151 155 168 162 171 170 163 159 154 164 165 153 149 164 174 147 146 162 239
220 237 246 250 261 239 246 258 274 272 241 237 236 234 231 228 234 227 216 211 201 193 191 189 177 176 169 159 149 141 139 155 176 180 181 171 176 174 164 161 158 161 158 161 170 163 137 176 195
201 233 266 267 265 252 251 263 274 276 254 243 239 232 229 233 237 224 212 204 193 187 187 191 183 180 170 168 171 170 180 183 196 197 183 185 183 181 176 169 168 173 177 184 174 160 174 198 148
223 252 270 288 290 260 262 269 269 266 252 236 231 232 233 237 245 235 227 196 191 192 191 190 190 187 187 186 185 180 171 176 199 194 186 195 187 186 182 176 186 191 176 168 178 155 165 217 167
241 225 244 272 317 294 286 284 264 270 253 249 246 237 232 220 222 238 234 203 192 197 201 200 199 194 191 184 155 132 122 126 154 211 200 208 195 190 186 186 182 189 184 191 198 187 176 203 235
256 238 245 269 299 295 267 281 274 257 263 260 260 256 248 244 238 245 242 210 202 205 203 201 202 198 192 181 172 170 177 186 203 209 206 206 192 191 195 186 182 188 196 200 204 202 195 178 216
231 276 265 250 240 300 277 249 280 261 255 253 249 252 254 250 237 244 251 235 227 215 208 204 203 199 190 185 184 182 184 193 181 189 190 197 192 190 195 190 182 188 201 206 207 202 204 197 200
223 2 354 19 69 273 241 215 277 238 237 260 267 267 264 265 258 253 266 267 256 229 217 203 201 206 192 183 187 190 185 182 174 200 205 204 201 194 192 187 186 196 201 207 213 212 210 215 206
80 84 16 351 334 257 240 226 255 249 235 246 261 270 276 276 277 281 289 271 251 235 225 210 207 206 191 182 190 199 195 188 193 203 210 205 208 206 202 194 199 205 208 210 208 207 218 219 212
187 148 163 210 247 290 295 241 257 263 264 279 278 277 285 279 276 277 275 269 259 244 228 211 206 203 192 187 191 196 196 193 200 207 214 207 214 211 200 198 201 210 212 212 206 212 220 215 217
139 180 179 141 294 287 271 279 294 286 321 312 306 306 282 270 266 272 281 281 272 261 239 213 206 201 193 191 189 193 195 198 203 206 209 202 203 203 196 201 204 210 214 212 208 214 221 215 220
153 147 112 138 186 272 285 272 261 275 274 281 283 284 284 281 282 287 286 280 265 253 258 235 209 198 196 191 192 195 197 196 198 196 200 207 206 197 192 198 204 209 212 213 212 224 226 218 225
148 146 139 151 185 195 272 271 231 227 240 256 265 271 269 276 278 279 286 285 293 303 270 265 241 205 199 199 197 191 196 180 178 195 203 204 203 197 190 183 190 210 215 210 208 222 222 220 227
182 184 168 185 232 209 236 270 270 247 261 259 266 272 274 277 282 280 277 297 310 290 290 277 271 237 221 204 196 199 190 174 180 197 208 206 200 200 195 190 193 206 222 216 210 217 224 224 226